CDT,Max TemperatureF,Mean TemperatureF,Min TemperatureF,Max Dew PointF,MeanDew PointF,Min DewpointF,Max Humidity, Mean Humidity, Min Humidity, Max Sea Level PressureIn, Mean Sea Level PressureIn, Min Sea Level PressureIn, Max VisibilityMiles, Mean VisibilityMiles, Min VisibilityMiles, Max Wind SpeedMPH, Mean Wind SpeedMPH, Max Gust SpeedMPH,PrecipitationIn, CloudCover, Events, WindDirDegrees
2013-9-1,84,76,69,73,70,64,94,81,55,29.95,29.86,29.81,10,9,4,14,2,40,0.05,1,Thunderstorm,258
2013-9-2,82,72,62,70,60,57,88,67,45,30.03,29.98,29.91,10,10,10,7,3,,0.00,1,,345
2013-9-3,82,68,53,61,56,52,94,70,37,30.12,30.07,30.02,10,10,9,8,1,,0.00,0,,52
2013-9-4,84,68,53,66,57,52,94,70,35,30.19,30.14,30.09,10,10,10,7,1,,0.00,0,,70
2013-9-5,86,70,55,66,59,52,94,70,37,30.23,30.18,30.14,10,10,10,9,1,,0.00,0,,292
2013-9-6,87,74,62,64,60,48,94,66,25,30.19,30.13,30.06,10,10,9,9,3,,0.00,0,,163
2013-9-7,93,78,62,68,62,59,88,65,34,30.07,30.02,29.94,10,10,7,10,4,,0.00,0,,195
2013-9-8,91,80,69,72,67,63,83,69,46,30.03,29.95,29.90,10,10,10,15,4,22,0.00,0,,169
2013-9-9,96,82,69,68,65,61,88,61,30,30.01,29.97,29.93,10,9,4,13,5,21,0.00,0,,227
2013-9-10,95,82,68,66,63,57,88,60,28,30.13,30.08,30.01,10,10,6,16,3,20,0.00,0,,238
2013-9-11,93,78,62,70,64,61,94,66,36,30.18,30.12,30.06,10,10,8,7,1,,0.00,0,,240
2013-9-12,84,76,68,68,64,46,88,70,41,30.14,30.09,30.04,10,9,3,12,3,16,0.00,1,,6
2013-9-13,78,66,55,48,46,45,72,51,32,30.18,30.12,30.06,10,10,8,9,5,20,0.00,0,,36
2013-9-14,78,61,44,48,45,41,87,55,29,30.17,30.10,30.03,10,10,6,9,4,,0.00,0,,131
2013-9-15,84,70,55,64,54,46,78,58,39,30.13,30.05,30.01,10,10,10,12,6,,0.00,2,,169
2013-9-16,68,64,60,64,59,55,94,85,77,30.27,30.21,30.13,10,7,1,14,8,,0.22,8,Thunderstorm,64
2013-9-17,69,64,60,66,61,57,94,86,78,30.23,30.16,30.06,10,6,3,9,5,,0.17,7,,118
2013-9-18,82,74,66,68,66,63,88,81,58,30.06,30.02,29.95,10,9,6,13,7,18,0.03,3,,175
2013-9-19,89,79,69,70,66,64,88,69,49,30.00,29.95,29.86,10,10,8,16,7,24,0.02,1,Thunderstorm,187
2013-9-20,71,62,53,64,58,48,94,81,56,30.01,29.97,29.93,10,10,2,12,5,18,0.80,4,Thunderstorm,327
2013-9-21,71,60,48,50,46,43,93,68,35,30.05,29.99,29.95,10,10,9,9,3,,0.00,0,,350
2013-9-22,75,58,42,54,47,39,93,68,38,30.04,29.98,29.92,10,10,1,7,2,,0.00,1,,116
2013-9-23,77,62,48,54,49,45,93,66,38,30.01,29.95,29.87,10,10,10,13,4,17,0.00,0,,135
2013-9-24,80,68,55,59,54,50,94,67,42,29.94,29.86,29.81,10,10,10,14,5,17,0.00,3,,203
2013-9-25,77,66,55,63,58,52,94,78,54,29.91,29.87,29.83,10,9,0,7,1,,0.00,2,,30
2013-9-26,82,70,57,64,60,55,94,73,48,30.00,29.96,29.89,10,8,2,13,3,16,0.00,1,,143
2013-9-27,84,73,62,64,61,57,88,71,45,30.08,30.02,29.97,10,10,9,14,4,18,0.00,1,,151
2013-9-28,78,68,59,66,61,55,94,79,57,30.08,29.99,29.95,10,10,8,15,6,23,0.10,5,,186
2013-9-29,71,61,51,55,51,46,94,75,43,30.12,30.06,29.99,10,9,1,10,2,,0.01,2,,42
2013-9-30,78,63,48,63,56,45,94,79,47,29.99,29.94,29.89,10,9,0,12,3,16,0.00,3,,165